Weather in Volnoe

Ukraine / Kherson District     46°50′24″N   34°36′43″E
temp.,
°C
wind,
m/s
gust,
m/s
humid.,
%
clouds,
%
prec.,
mm/h
press.,
hPa
HPBL,
m
29 may, sun
sun2900:00+15w336925 0.0 101349
03:00+14sw227337 0.0 101314
06:00+14sw34745 0.0 101381
09:00+21sw345137 0.0 1013658
12:00+25wsw454064 0.0 10131721
15:00+24wnw554498 0.0 10141036
18:00+23n224816 0.0 1014682
21:00+17ene46720 0.0 101585
30 may, mon
mon3000:00+16ene34820 0.0 101548
03:00+15e34905 0.0 101551
06:00+15e37743 0.0 1015145
09:00+22ese7105491 0.0 1014627
12:00+25ese8945100 0.0 1014990
15:00+27se78445 0.0 10131144
18:00+25ese67515 0.0 1013859
21:00+20ese47765 0.0 1013124
31 may, tue
tue3100:00+18ese48820 0.0 1012125
03:00+17sse22860 0.0 101211
06:00+18ne22791 0.0 101231
09:00+24ese235236 0.0 1013459
12:00+29s233912 0.0 10121064
15:00+31sw33324 0.0 10122242
18:00+30w32382 0.0 10121643
21:00+23n34640 0.0 101355
1 june, wed
wed100:00+20n611882 0.4 1015330
03:00+18n49964 0.4 1014218
06:00+18n599533 0.0 1015292
09:00+23ne56672 0.0 1016590
12:00+28ne33505 0.0 10151283
15:00+31nne12401 0.0 10142139
18:00+31nw223829 0.0 10142127
21:00+25n126290 0.0 101440
2 june, thu
thu200:00+21ne338024 1.4 101547
03:00+20nne23831 1.4 101524
06:00+20nne35823 0.0 1015102
09:00+25nne44585 0.0 1016547
12:00+30nne33425 0.0 10161429
15:00+31n323597 0.0 10152403
18:00+30n5440100 0.0 10141737
21:00+21sse3677100 1.3 1017130